TimeEDT,TemperatureF,Dew PointF,Humidity,Sea Level PressureIn,VisibilityMPH,Wind Direction,Wind SpeedMPH,Gust SpeedMPH,PrecipitationIn,Events,Conditions,WindDirDegrees,DateUTC
12:15 AM,48.2,28.4,46,30.10,10.0,Calm,Calm,-,N/A,,Scattered Clouds,0,2013-05-14 04:15:00
12:35 AM,50.0,28.4,43,30.10,10.0,Calm,Calm,-,N/A,,Mostly Cloudy,0,2013-05-14 04:35:00
12:55 AM,50.0,28.4,43,30.10,10.0,Calm,Calm,-,N/A,,Overcast,0,2013-05-14 04:55:00
1:15 AM,50.0,26.6,40,30.09,10.0,Calm,Calm,-,N/A,,Overcast,0,2013-05-14 05:15:00
1:35 AM,50.0,26.6,40,30.08,10.0,SSE,3.5,-,N/A,,Overcast,150,2013-05-14 05:35:00
1:55 AM,50.0,26.6,40,30.08,10.0,SSE,3.5,-,N/A,,Overcast,150,2013-05-14 05:55:00
2:15 AM,50.0,26.6,40,30.07,10.0,SE,4.6,-,N/A,,Overcast,140,2013-05-14 06:15:00
2:35 AM,50.0,26.6,40,30.07,10.0,South,3.5,-,N/A,,Overcast,170,2013-05-14 06:35:00
2:55 AM,50.0,26.6,40,30.06,10.0,SSE,4.6,-,N/A,,Overcast,160,2013-05-14 06:55:00
3:15 AM,50.0,28.4,43,30.04,10.0,SSE,3.5,-,N/A,,Mostly Cloudy,160,2013-05-14 07:15:00
3:55 AM,50.0,30.2,47,30.02,10.0,SSE,3.5,-,N/A,,Scattered Clouds,160,2013-05-14 07:55:00
4:15 AM,50.0,30.2,47,30.01,10.0,South,3.5,-,N/A,,Clear,180,2013-05-14 08:15:00
4:35 AM,50.0,32.0,50,30.00,10.0,SSW,4.6,-,N/A,,Scattered Clouds,200,2013-05-14 08:35:00
4:55 AM,51.8,32.0,47,30.00,10.0,Calm,Calm,-,N/A,,Overcast,0,2013-05-14 08:55:00
5:15 AM,51.8,33.8,50,30.00,10.0,South,3.5,-,N/A,Rain,Light Rain,180,2013-05-14 09:15:00
5:35 AM,51.8,35.6,54,30.00,10.0,Calm,Calm,-,N/A,,Overcast,0,2013-05-14 09:35:00
5:55 AM,51.8,35.6,54,30.00,10.0,South,4.6,-,N/A,,Overcast,170,2013-05-14 09:55:00
6:15 AM,51.8,35.6,54,29.99,10.0,Calm,Calm,-,N/A,,Overcast,0,2013-05-14 10:15:00
6:35 AM,51.8,35.6,54,29.99,10.0,Calm,Calm,-,N/A,,Overcast,0,2013-05-14 10:35:00
6:55 AM,51.8,35.6,54,29.99,10.0,SSE,4.6,-,N/A,,Overcast,150,2013-05-14 10:55:00
7:15 AM,51.8,37.4,58,29.98,10.0,SSE,5.8,-,N/A,,Scattered Clouds,160,2013-05-14 11:15:00
7:35 AM,51.8,37.4,58,29.98,10.0,South,4.6,-,N/A,,Clear,170,2013-05-14 11:35:00
7:55 AM,51.8,37.4,58,29.98,10.0,South,6.9,-,N/A,,Scattered Clouds,170,2013-05-14 11:55:00
8:15 AM,53.6,37.4,54,29.97,10.0,South,8.1,-,N/A,,Mostly Cloudy,180,2013-05-14 12:15:00
8:35 AM,53.6,35.6,51,29.96,10.0,South,10.4,-,N/A,,Overcast,180,2013-05-14 12:35:00
8:55 AM,55.4,35.6,47,29.95,10.0,South,10.4,17.3,N/A,,Mostly Cloudy,180,2013-05-14 12:55:00
9:15 AM,59.0,37.4,45,29.94,10.0,South,9.2,-,N/A,,Mostly Cloudy,180,2013-05-14 13:15:00
9:35 AM,59.0,37.4,45,29.93,10.0,South,15.0,23.0,N/A,,Mostly Cloudy,190,2013-05-14 13:35:00
9:55 AM,60.8,37.4,42,29.90,10.0,SSW,13.8,19.6,N/A,,Scattered Clouds,210,2013-05-14 13:55:00
10:15 AM,60.8,39.2,45,29.90,10.0,SSW,9.2,21.9,N/A,,Clear,200,2013-05-14 14:15:00
10:35 AM,60.8,39.2,45,29.89,10.0,SSW,9.2,18.4,N/A,,Mostly Cloudy,200,2013-05-14 14:35:00
10:55 AM,62.6,41.0,45,29.88,10.0,SSW,9.2,17.3,N/A,,Scattered Clouds,200,2013-05-14 14:55:00
11:15 AM,64.4,42.8,45,29.87,10.0,SSW,10.4,19.6,N/A,,Scattered Clouds,210,2013-05-14 15:15:00
11:35 AM,68.0,44.6,43,29.86,10.0,SW,12.7,18.4,N/A,,Scattered Clouds,220,2013-05-14 15:35:00
11:55 AM,68.0,44.6,43,29.85,10.0,SSW,9.2,19.6,N/A,,Scattered Clouds,200,2013-05-14 15:55:00
12:15 PM,69.8,46.4,43,29.84,10.0,SSW,8.1,20.7,N/A,,Clear,210,2013-05-14 16:15:00
12:35 PM,71.6,46.4,41,29.83,10.0,SSW,9.2,17.3,N/A,,Clear,200,2013-05-14 16:35:00
12:55 PM,71.6,48.2,43,29.83,10.0,SW,11.5,20.7,N/A,,Clear,230,2013-05-14 16:55:00
1:15 PM,73.4,50.0,44,29.82,10.0,SW,10.4,19.6,N/A,,Clear,220,2013-05-14 17:15:00
1:35 PM,73.4,50.0,44,29.82,10.0,SW,15.0,21.9,N/A,,Clear,230,2013-05-14 17:35:00
1:55 PM,75.2,51.8,44,29.82,10.0,West,16.1,21.9,N/A,,Clear,260,2013-05-14 17:55:00
2:35 PM,77.0,51.8,41,29.80,10.0,SW,10.4,18.4,N/A,,Clear,230,2013-05-14 18:35:00
2:55 PM,78.8,53.6,42,29.79,10.0,SW,9.2,20.7,N/A,,Clear,230,2013-05-14 18:55:00
3:15 PM,78.8,53.6,42,29.79,10.0,WSW,15.0,24.2,N/A,,Clear,250,2013-05-14 19:15:00
3:35 PM,80.6,55.4,42,29.79,10.0,WSW,15.0,20.7,N/A,,Clear,250,2013-05-14 19:35:00
3:55 PM,80.6,55.4,42,29.78,10.0,WSW,10.4,16.1,N/A,,Clear,240,2013-05-14 19:55:00
4:15 PM,82.4,55.4,39,29.78,10.0,WSW,13.8,18.4,N/A,,Clear,250,2013-05-14 20:15:00
4:35 PM,82.4,55.4,39,29.77,10.0,West,12.7,21.9,N/A,,Clear,260,2013-05-14 20:35:00
4:55 PM,82.4,55.4,39,29.77,10.0,West,16.1,21.9,N/A,,Clear,280,2013-05-14 20:55:00
5:15 PM,82.4,55.4,39,29.78,10.0,West,15.0,20.7,N/A,,Clear,270,2013-05-14 21:15:00
5:35 PM,82.4,55.4,39,29.77,10.0,West,12.7,25.3,N/A,,Clear,280,2013-05-14 21:35:00
5:55 PM,84.2,53.6,35,29.78,10.0,WNW,12.7,21.9,N/A,,Clear,290,2013-05-14 21:55:00
6:35 PM,84.2,48.2,29,29.79,10.0,NNW,11.5,-,N/A,,Clear,330,2013-05-14 22:35:00
6:55 PM,82.4,48.2,30,29.79,10.0,NNW,6.9,16.1,N/A,,Clear,330,2013-05-14 22:55:00
7:15 PM,82.4,46.4,28,29.79,10.0,NNW,10.4,-,N/A,,Clear,340,2013-05-14 23:15:00
7:35 PM,80.6,48.2,32,29.78,10.0,North,5.8,-,N/A,,Clear,350,2013-05-14 23:35:00
7:55 PM,78.8,51.8,39,29.77,10.0,West,3.5,-,N/A,,Clear,280,2013-05-14 23:55:00
8:15 PM,77.0,50.0,39,29.76,10.0,Calm,Calm,-,N/A,,Clear,0,2013-05-15 00:15:00
8:35 PM,73.4,48.2,41,29.74,10.0,SSW,4.6,-,N/A,,Clear,200,2013-05-15 00:35:00
8:55 PM,77.0,46.4,34,29.74,10.0,SSW,5.8,-,N/A,,Clear,210,2013-05-15 00:55:00
9:15 PM,77.0,46.4,34,29.75,10.0,SSW,5.8,-,N/A,,Clear,210,2013-05-15 01:15:00
9:35 PM,77.0,48.2,36,29.75,10.0,SW,4.6,-,N/A,,Clear,220,2013-05-15 01:35:00
9:55 PM,77.0,51.8,41,29.75,10.0,SSW,5.8,-,N/A,,Clear,210,2013-05-15 01:55:00
10:15 PM,75.2,57.2,53,29.76,10.0,SSW,5.8,-,N/A,,Clear,210,2013-05-15 02:15:00
10:35 PM,73.4,59.0,61,29.76,10.0,SW,5.8,-,N/A,,Clear,220,2013-05-15 02:35:00
10:55 PM,73.4,59.0,61,29.78,10.0,SW,3.5,-,N/A,,Clear,220,2013-05-15 02:55:00
11:15 PM,73.4,59.0,61,29.78,10.0,SW,3.5,-,N/A,,Clear,220,2013-05-15 03:15:00
11:35 PM,73.4,59.0,61,29.78,10.0,SW,6.9,-,N/A,,Clear,220,2013-05-15 03:35:00